Fredericksburg, TX

6:32 PM CDT on August 30, 2016 (GMT -0500)
Fredericksburg

Weather History for KT82 - March, 2013

Change the Weather History Date:

Friday, March 8, 2013

  Actual Average (KSAT) Record (KSAT)
Temperature  
Mean Temperature 61 °F 60 °F  
Max Temperature 66 °F 72 °F 90 °F (1918)
Min Temperature 56 °F 49 °F 26 °F (1947)
Degree Days  
Heating Degree Days 4 6  
Month to date heating degree days 55  
Since 1 July heating degree days 1356  
Cooling Degree Days 0 2  
Month to date cooling degree days 11  
Year to date cooling degree days 37  
Growing Degree Days 11 (Base 50)    
Moisture  
Dew Point 58 °F    
Average Humidity 90    
Maximum Humidity 99    
Minimum Humidity 78    
Precipitation  
Precipitation 0.00 in 0.07 in 1.47 in (1893)
Month to date precipitation 0.62  
Year to date precipitation 4.17  
Snow  
Snow 0.00 in - - ()
Month to date snowfall  
Since 1 July snowfall  
Snow Depth -    
Sea Level Pressure  
Sea Level Pressure 30.06 in    
Wind  
Wind Speed 10 mph (SSE)    
Max Wind Speed 16 mph    
Max Gust Speed 24 mph    
Visibility 8 miles    
Events Rain    
T = Trace of Precipitation, MM = Missing Value Source: NWS Daily Summary

Daily Weather History Graph

Daily Weather History Graph

Search for Another Location

Airport or City:

Trip Planner

Search our weather history database for the weather conditions in past years. The results will help you decide how hot, cold, wet, or windy it might be!

Date:

Astronomy

Mar. 08, 2013 Rise Set
Actual Time 6:53 AM CST 6:39 PM CST
Civil Twilight 6:29 AM CST 7:03 PM CST
Nautical Twilight 6:01 AM CST 7:31 PM CST
Astronomical Twilight 5:33 AM CST 7:59 PM CST
Moon 4:27 AM CST (3/8) 3:46 PM CST (3/8)
Length of Visible Light 12h 34m
Length of Day
11h 46m
Waning Crescent, 11% of the Moon is Illuminated
Mar 8
Waning Crescent
Mar 11
New
Mar 19
First Quarter
Mar 27
Full
Apr 2
Last Quarter

Hourly Weather History & Observations

Time (CST) Temp. Dew Point Humidity Pressure Visibility Wind Dir Wind Speed Gust Speed Precip Events Conditions
12:15 AM 58.5 °F 54.5 °F 87% 30.11 in 10.0 mi South 16.1 mph 24.2 mph N/A   Overcast
12:35 AM 58.1 °F 54.9 °F 89% 30.09 in 10.0 mi South 12.7 mph 16.1 mph N/A   Overcast
12:55 AM 57.7 °F 55.0 °F 91% 30.10 in 10.0 mi South 12.7 mph 18.4 mph N/A   Overcast
1:15 AM 57.7 °F 55.2 °F 91% 30.10 in 7.0 mi South 13.8 mph - N/A   Overcast
1:35 AM 57.6 °F 55.4 °F 92% 30.09 in 7.0 mi SSE 11.5 mph 18.4 mph N/A   Overcast
1:55 AM 57.4 °F 55.2 °F 92% 30.09 in 7.0 mi South 9.2 mph 18.4 mph N/A   Overcast
2:15 AM 57.4 °F 55.2 °F 92% 30.08 in 7.0 mi SSE 9.2 mph - N/A   Overcast
2:35 AM 57.2 °F 55.4 °F 94% 30.07 in 5.0 mi SSE 9.2 mph - N/A   Overcast
2:55 AM 56.7 °F 55.4 °F 96% 30.07 in 5.0 mi SSE 9.2 mph 17.3 mph N/A   Overcast
3:15 AM 56.7 °F 55.6 °F 96% 30.07 in 4.0 mi South 9.2 mph - N/A   Overcast
3:35 AM 56.5 °F 55.4 °F 96% 30.06 in 4.0 mi SSE 9.2 mph - N/A   Overcast
3:55 AM 56.3 °F 55.4 °F 97% 30.06 in 4.0 mi SSE 8.1 mph - N/A   Overcast
4:15 AM 56.3 °F 55.6 °F 97% 30.06 in 3.0 mi SSE 5.8 mph - N/A   Overcast
4:35 AM 56.5 °F 55.9 °F 98% 30.06 in 3.0 mi SSE 8.1 mph - N/A   Overcast
4:55 AM 56.7 °F 56.3 °F 99% 30.06 in 3.0 mi South 6.9 mph - N/A   Overcast
5:15 AM 56.8 °F 56.3 °F 98% 30.07 in 3.0 mi SSE 4.6 mph - N/A   Overcast
5:35 AM 57.2 °F 56.5 °F 97% 30.07 in 3.0 mi SSE 6.9 mph - N/A   Overcast
5:55 AM 57.2 °F 56.7 °F 98% 30.06 in 2.5 mi SSE 8.1 mph - N/A   Overcast
6:15 AM 57.2 °F 56.8 °F 99% 30.07 in 2.5 mi SSE 8.1 mph - N/A   Overcast
6:35 AM 57.6 °F 57.2 °F 99% 30.06 in 3.0 mi SSE 9.2 mph - N/A Rain Rain
6:55 AM 57.7 °F 57.4 °F 99% 30.07 in 3.0 mi SSE 9.2 mph - N/A Rain Light Rain
7:15 AM 58.1 °F 57.6 °F 98% 30.06 in 5.0 mi SSE 6.9 mph - N/A   Overcast
7:35 AM 58.6 °F 58.1 °F 98% 30.08 in 7.0 mi South 6.9 mph - N/A   Overcast
7:55 AM 59.4 °F 58.3 °F 96% 30.10 in 10.0 mi South 6.9 mph - N/A   Overcast
8:15 AM 59.2 °F 58.3 °F 97% 30.11 in 4.0 mi SSE 8.1 mph - N/A   Overcast
8:35 AM 59.9 °F 58.8 °F 96% 30.10 in 10.0 mi South 9.2 mph - N/A   Overcast
8:55 AM 60.6 °F 58.8 °F 94% 30.11 in 10.0 mi South 8.1 mph - N/A   Overcast
9:15 AM 61.0 °F 59.0 °F 93% 30.12 in 10.0 mi South 8.1 mph - N/A   Overcast
9:35 AM 61.5 °F 59.2 °F 92% 30.12 in 10.0 mi South 6.9 mph - N/A   Overcast
9:55 AM 61.9 °F 59.2 °F 91% 30.11 in 10.0 mi SE 6.9 mph - N/A   Overcast
10:15 AM 62.1 °F 59.0 °F 90% 30.10 in 10.0 mi SE 8.1 mph - N/A   Overcast
10:35 AM 61.9 °F 59.2 °F 91% 30.10 in 10.0 mi SSE 10.4 mph - N/A   Overcast
10:55 AM 62.4 °F 59.2 °F 89% 30.10 in 10.0 mi SSE 8.1 mph - N/A   Overcast
11:15 AM 63.0 °F 59.2 °F 87% 30.11 in 10.0 mi SSE 6.9 mph - N/A   Overcast
11:35 AM 63.7 °F 59.0 °F 85% 30.11 in 10.0 mi South 8.1 mph - N/A   Overcast
11:55 AM 63.9 °F 59.0 °F 84% 30.10 in 10.0 mi South 8.1 mph 16.1 mph N/A   Overcast
12:15 PM 63.9 °F 58.8 °F 84% 30.09 in 10.0 mi South 12.7 mph 16.1 mph N/A   Overcast
12:35 PM 64.8 °F 59.0 °F 82% 30.07 in 10.0 mi SSE 9.2 mph - N/A   Overcast
12:55 PM 64.9 °F 58.8 °F 81% 30.08 in 10.0 mi SSE 11.5 mph - N/A   Overcast
1:15 PM 64.4 °F 59.0 °F 83% 30.08 in 10.0 mi SSE 8.1 mph - N/A   Overcast
1:35 PM 64.8 °F 59.0 °F 82% 30.07 in 10.0 mi SSE 9.2 mph - N/A   Overcast
1:55 PM 65.3 °F 59.0 °F 80% 30.06 in 10.0 mi SSE 8.1 mph - N/A   Overcast
2:15 PM 66.4 °F 59.2 °F 78% 30.04 in 10.0 mi SSE 11.5 mph - N/A   Overcast
2:35 PM 64.9 °F 59.2 °F 82% 30.03 in 10.0 mi SE 10.4 mph 17.3 mph N/A   Overcast
2:55 PM 64.0 °F 59.2 °F 84% 30.03 in 10.0 mi SE 11.5 mph - N/A   Overcast
3:15 PM 64.0 °F 59.4 °F 85% 30.03 in 10.0 mi SSE 10.4 mph - N/A   Overcast
3:35 PM 64.4 °F 59.4 °F 84% 30.03 in 10.0 mi South 9.2 mph - N/A   Overcast
3:55 PM 64.4 °F 59.9 °F 85% 30.03 in 10.0 mi SSE 9.2 mph 17.3 mph N/A   Overcast
4:15 PM 64.6 °F 59.9 °F 85% 30.02 in 10.0 mi SSE 10.4 mph 17.3 mph N/A   Overcast
4:35 PM 64.6 °F 59.9 °F 85% 30.01 in 10.0 mi SSE 11.5 mph 18.4 mph N/A   Overcast
4:55 PM 64.4 °F 59.9 °F 85% 30.00 in 10.0 mi SSE 11.5 mph 17.3 mph N/A   Overcast
5:15 PM 64.4 °F 59.9 °F 85% 30.00 in 10.0 mi SSE 8.1 mph 18.4 mph N/A   Overcast
5:35 PM 64.4 °F 59.9 °F 85% 30.01 in 10.0 mi SSE 8.1 mph 18.4 mph N/A   Overcast
5:55 PM 64.0 °F 59.9 °F 86% 30.01 in 10.0 mi SSE 10.4 mph 16.1 mph N/A   Overcast
6:15 PM 63.9 °F 59.9 °F 87% 30.02 in 10.0 mi SSE 9.2 mph - N/A   Overcast
6:35 PM 63.5 °F 60.1 °F 89% 30.01 in 7.0 mi SSE 10.4 mph 18.4 mph N/A   Overcast
6:55 PM 63.5 °F 59.9 °F 88% 30.01 in 10.0 mi SE 10.4 mph 17.3 mph N/A   Overcast
7:15 PM 63.5 °F 59.9 °F 88% 30.02 in 10.0 mi SSE 8.1 mph 16.1 mph N/A   Overcast
7:35 PM 63.7 °F 59.9 °F 87% 30.03 in 10.0 mi SSE 8.1 mph - N/A   Overcast
7:55 PM 63.5 °F 59.4 °F 86% 30.02 in 10.0 mi SSE 9.2 mph - N/A   Overcast
8:15 PM 63.5 °F 59.4 °F 86% 30.03 in 10.0 mi SSE 10.4 mph 17.3 mph N/A   Overcast
8:35 PM 62.6 °F 59.0 °F 88% 30.03 in 10.0 mi SSE 9.2 mph - N/A   Overcast
8:55 PM 62.6 °F 58.8 °F 87% 30.02 in 10.0 mi SSE 11.5 mph 17.3 mph N/A   Overcast
9:15 PM 62.2 °F 58.3 °F 87% 30.02 in 10.0 mi SSE 15.0 mph 20.7 mph N/A   Overcast
9:35 PM 62.1 °F 58.1 °F 87% 30.02 in 10.0 mi SSE 11.5 mph 21.9 mph N/A   Overcast
9:55 PM 62.1 °F 57.4 °F 85% 30.03 in 10.0 mi SSE 12.7 mph 20.7 mph N/A   Overcast
10:15 PM 61.9 °F 57.6 °F 86% 30.02 in 10.0 mi SSE 9.2 mph 17.3 mph N/A   Overcast
10:35 PM 61.5 °F 57.6 °F 87% 30.02 in 10.0 mi SSE 9.2 mph 16.1 mph N/A   Overcast
10:55 PM 61.0 °F 57.4 °F 88% 30.02 in 10.0 mi SSE 12.7 mph - N/A   Overcast
11:15 PM 60.8 °F 57.6 °F 89% 30.01 in 10.0 mi SSE 11.5 mph 20.7 mph N/A   Overcast
11:35 PM 60.8 °F 57.6 °F 89% 30.01 in 10.0 mi SSE 9.2 mph 18.4 mph N/A   Overcast
11:55 PM 60.8 °F 57.6 °F 89% 30.00 in 10.0 mi SSE 10.4 mph 17.3 mph N/A   Overcast